KUIPER-00038 (63750 NORAD) Tracking and Keplerian Element Data

This shows tracking and keplerian element data for the satellite.

Feedback or suggestion? Click here.




ElementValue
Catalog63750
NameKUIPER-00038
Epoch Orbit3571
Epoch Day353.97243767
Epoch Year2025
RAAN90.5883
Inclination51.9025
Eccentricity0.0008876
Argument of Perigee153.2448
Mean Anonmoly206.8974
Mean Motion14.79872053
Decay Rate-4.471E-05
L11 63750U 25088AC 25353.97243767 -.00004471 00000+0 -55802-3 0 9997
L22 63750 51.9025 90.5883 0008876 153.2448 206.8974 14.79872053 35712



Live tracking and technical data element details for KUIPER-00038 (NORAD 63750). KUIPER-00038 can be tracked NOW for your location showing map with azimuth and elevation plus other details from your city location.







IsCatalogInMostPopularTable: catalog: 63750, numindb: 6
Update: records affected: 1



GetName: 63750 KUIPER-00038

Hit Count: updated at: Mon, 20 Apr 2026 09:54:46 GMT